• In Uzbekistan
  • List of Countries
  • For 7 days
  • Water Temperature
  • Satellite Maps
  • Weather Map
  • Weather Widgets
  • user-avatar
    Login

    Hourly Weather Quito

    Today, 21 July, Friday

    Time Temperature Precipitation Wind Pressure Humidity
    00:00 +15°C° 0 mm 1 mps 623 mmHg 31%
    01:00 +14°C° 0 mm 1 mps 623 mmHg 33%
    02:00 +13°C° 0 mm 1 mps 623 mmHg 35%
    03:00 +13°C° 0 mm 1 mps 622 mmHg 36%
    04:00 +12°C° 0 mm 1 mps 622 mmHg 37%
    05:00 +12°C° 0 mm 1 mps 622 mmHg 37%
    06:00 +12°C° 0 mm 1 mps 623 mmHg 38%
    07:00 +12°C° 0 mm 1 mps 623 mmHg 39%
    08:00 +16°C° 0 mm 1 mps 624 mmHg 34%
    09:00 +19°C° 0 mm 2 mps 625 mmHg 30%
    10:00 +24°C° 0 mm 3 mps 626 mmHg 25%
    11:00 +25°C° 0 mm 2 mps 626 mmHg 22%
    12:00 +27°C° 0 mm 2 mps 626 mmHg 19%
    13:00 +28°C° 0 mm 2 mps 626 mmHg 17%
    14:00 +28°C° 0 mm 2 mps 625 mmHg 16%
    15:00 +28°C° 0 mm 2 mps 625 mmHg 16%
    16:00 +28°C° 0 mm 1 mps 624 mmHg 15%
    17:00 +26°C° 0 mm 1 mps 624 mmHg 19%
    18:00 +23°C° 0 mm 1 mps 623 mmHg 22%
    19:00 +20°C° 0 mm 1 mps 622 mmHg 25%
    20:00 +20°C° 0 mm 1 mps 623 mmHg 26%
    21:00 +19°C° 0 mm 1 mps 623 mmHg 27%
    22:00 +18°C° 0 mm 1 mps 623 mmHg 27%
    23:00 +18°C° 0 mm 1 mps 623 mmHg 28%

    Tomorrow, 22 July, Saturday

    Time Temperature Precipitation Wind Pressure Humidity
    00:00 +16°C° 0 mm 1 mps 623 mmHg 29%
    01:00 +15°C° 0 mm 1 mps 623 mmHg 30%
    02:00 +15°C° 0 mm 1 mps 622 mmHg 32%
    03:00 +14°C° 0 mm 1 mps 622 mmHg 33%
    04:00 +13°C° 0 mm 1 mps 622 mmHg 35%
    05:00 +14°C° 0 mm 1 mps 622 mmHg 35%
    06:00 +14°C° 0 mm 1 mps 623 mmHg 36%
    07:00 +14°C° 0 mm 1 mps 623 mmHg 36%
    08:00 +18°C° 0 mm 1 mps 624 mmHg 31%
    09:00 +22°C° 0 mm 1 mps 626 mmHg 26%
    10:00 +26°C° 0 mm 1 mps 627 mmHg 21%
    11:00 +28°C° 0 mm 1 mps 627 mmHg 19%
    12:00 +30°C° 0 mm 1 mps 627 mmHg 16%
    13:00 +32°C° 0 mm 1 mps 627 mmHg 14%
    14:00 +31°C° 0 mm 1 mps 626 mmHg 14%
    15:00 +30°C° 0 mm 1 mps 625 mmHg 14%
    16:00 +29°C° 0 mm 1 mps 624 mmHg 14%
    17:00 +27°C° 0 mm 1 mps 624 mmHg 17%
    18:00 +24°C° 0 mm 1 mps 623 mmHg 20%
    19:00 +21°C° 0 mm 1 mps 623 mmHg 23%
    20:00 +21°C° 0 mm 1 mps 623 mmHg 24%
    21:00 +20°C° 0 mm 1 mps 623 mmHg 25%
    22:00 +19°C° 0 mm 1 mps 624 mmHg 26%
    23:00 +19°C° 0 mm 1 mps 623 mmHg 26%

    Day after tomorrow, 23 July, Sunday

    Time Temperature Precipitation Wind Pressure Humidity
    00:00 +18°C° 0 mm 1 mps 623 mmHg 27%
    01:00 +18°C° 0 mm 1 mps 623 mmHg 28%
    02:00 +16°C° 0 mm 1 mps 623 mmHg 28%
    03:00 +15°C° 0 mm 1 mps 622 mmHg 29%
    04:00 +14°C° 0 mm 1 mps 622 mmHg 30%
    05:00 +14°C° 0 mm 1 mps 622 mmHg 31%
    06:00 +14°C° 0 mm 1 mps 622 mmHg 31%
    07:00 +14°C° 0 mm 1 mps 623 mmHg 32%
    08:00 +17°C° 0 mm 2 mps 624 mmHg 27%
    09:00 +21°C° 0 mm 2 mps 625 mmHg 22%
    10:00 +25°C° 0 mm 3 mps 626 mmHg 17%
    11:00 +27°C° 0 mm 3 mps 626 mmHg 16%
    12:00 +29°C° 0 mm 2 mps 626 mmHg 15%
    13:00 +30°C° 0 mm 2 mps 626 mmHg 13%
    14:00 +30°C° 0 mm 2 mps 625 mmHg 13%
    15:00 +30°C° 0 mm 2 mps 625 mmHg 13%
    16:00 +29°C° 0 mm 1 mps 624 mmHg 13%
    17:00 +27°C° 0 mm 1 mps 624 mmHg 16%
    18:00 +24°C° 0 mm 1 mps 623 mmHg 18%
    19:00 +21°C° 0 mm 1 mps 623 mmHg 21%
    20:00 +21°C° 0 mm 1 mps 623 mmHg 21%
    21:00 +20°C° 0 mm 1 mps 624 mmHg 22%
    22:00 +19°C° 0 mm 1 mps 624 mmHg 23%
    23:00 +19°C° 0 mm 1 mps 623 mmHg 24%

    24 July, Monday

    Time Temperature Precipitation Wind Pressure Humidity
    00:00 +18°C° 0 mm 1 mps 623 mmHg 25%
    01:00 +16°C° 0 mm 1 mps 623 mmHg 26%
    02:00 +15°C° 0 mm 1 mps 622 mmHg 26%
    03:00 +15°C° 0 mm 1 mps 622 mmHg 27%
    04:00 +14°C° 0 mm 1 mps 622 mmHg 27%
    05:00 +14°C° 0 mm 1 mps 622 mmHg 28%
    06:00 +14°C° 0 mm 1 mps 623 mmHg 28%
    07:00 +14°C° 0 mm 1 mps 623 mmHg 29%
    08:00 +18°C° 0 mm 2 mps 624 mmHg 24%
    09:00 +21°C° 0 mm 2 mps 625 mmHg 20%
    10:00 +26°C° 0 mm 3 mps 627 mmHg 16%
    11:00 +28°C° 0 mm 3 mps 626 mmHg 15%
    12:00 +29°C° 0 mm 2 mps 626 mmHg 14%
    13:00 +31°C° 0 mm 2 mps 626 mmHg 13%
    14:00 +31°C° 0 mm 2 mps 625 mmHg 13%
    15:00 +30°C° 0 mm 2 mps 625 mmHg 13%
    16:00 +30°C° 0 mm 1 mps 624 mmHg 13%
    17:00 +27°C° 0 mm 1 mps 624 mmHg 15%
    18:00 +25°C° 0 mm 1 mps 623 mmHg 17%
    19:00 +22°C° 0 mm 1 mps 623 mmHg 20%
    20:00 +21°C° 0 mm 1 mps 623 mmHg 20%
    21:00 +21°C° 0 mm 1 mps 624 mmHg 21%
    22:00 +20°C° 0 mm 1 mps 624 mmHg 21%
    23:00 +19°C° 0 mm 1 mps 624 mmHg 22%

    25 July, Tuesday

    Time Temperature Precipitation Wind Pressure Humidity
    00:00 +18°C° 0 mm 1 mps 623 mmHg 23%
    01:00 +16°C° 0 mm 2 mps 623 mmHg 24%
    02:00 +16°C° 0 mm 1 mps 623 mmHg 25%
    03:00 +15°C° 0 mm 1 mps 623 mmHg 26%
    04:00 +14°C° 0 mm 1 mps 622 mmHg 27%
    05:00 +14°C° 0 mm 1 mps 623 mmHg 28%
    06:00 +14°C° 0 mm 1 mps 623 mmHg 28%
    07:00 +14°C° 0 mm 1 mps 624 mmHg 29%
    08:00 +18°C° 0 mm 2 mps 625 mmHg 25%
    09:00 +21°C° 0 mm 3 mps 626 mmHg 21%
    10:00 +26°C° 0 mm 3 mps 626 mmHg 18%
    11:00 +27°C° 0 mm 3 mps 626 mmHg 16%
    12:00 +28°C° 0 mm 3 mps 626 mmHg 14%
    13:00 +30°C° 0 mm 3 mps 625 mmHg 13%
    14:00 +30°C° 0 mm 2 mps 625 mmHg 13%
    15:00 +29°C° 0 mm 2 mps 624 mmHg 13%
    16:00 +29°C° 0 mm 2 mps 624 mmHg 13%
    17:00 +27°C° 0 mm 2 mps 624 mmHg 15%
    18:00 +24°C° 0 mm 1 mps 623 mmHg 17%
    19:00 +21°C° 0 mm 1 mps 623 mmHg 20%
    20:00 +21°C° 0 mm 1 mps 623 mmHg 21%
    21:00 +20°C° 0 mm 1 mps 623 mmHg 21%
    22:00 +19°C° 0 mm 1 mps 623 mmHg 22%
    23:00 +18°C° 0 mm 1 mps 623 mmHg 23%

    26 July, Wednesday

    Time Temperature Precipitation Wind Pressure Humidity
    00:00 +18°C° 0 mm 1 mps 623 mmHg 24%
    01:00 +16°C° 0 mm 2 mps 622 mmHg 25%
    02:00 +15°C° 0 mm 2 mps 622 mmHg 25%
    03:00 +15°C° 0 mm 1 mps 622 mmHg 26%
    04:00 +14°C° 0 mm 1 mps 622 mmHg 26%
    05:00 +14°C° 0 mm 1 mps 622 mmHg 26%
    06:00 +14°C° 0 mm 1 mps 622 mmHg 27%
    07:00 +14°C° 0 mm 1 mps 623 mmHg 28%
    08:00 +18°C° 0 mm 2 mps 624 mmHg 24%
    09:00 +21°C° 0 mm 3 mps 625 mmHg 20%
    10:00 +26°C° 0 mm 4 mps 626 mmHg 16%
    11:00 +27°C° 0 mm 3 mps 626 mmHg 15%
    12:00 +29°C° 0 mm 3 mps 625 mmHg 13%
    13:00 +30°C° 0 mm 3 mps 625 mmHg 12%
    14:00 +30°C° 0 mm 2 mps 625 mmHg 12%
    15:00 +30°C° 0 mm 2 mps 624 mmHg 12%
    16:00 +30°C° 0 mm 2 mps 624 mmHg 12%
    17:00 +27°C° 0 mm 1 mps 623 mmHg 14%
    18:00 +24°C° 0 mm 1 mps 623 mmHg 17%
    19:00 +21°C° 0 mm 1 mps 623 mmHg 19%
    20:00 +21°C° 0 mm 1 mps 623 mmHg 20%
    21:00 +20°C° 0 mm 1 mps 623 mmHg 21%
    22:00 +19°C° 0 mm 1 mps 623 mmHg 21%
    23:00 +19°C° 0 mm 1 mps 623 mmHg 22%
    Show more